[[{"header":{"parameterUnit":"m.s-1","parameterCategory":1,"la1":30.2991,"la2":30.254,"lo1":-89.0895,"lo2":-89.0444,"dy":0.0017,"dx":0.0017,"nx":28,"ny":28,"refTime":"2023-11-20T03:00:00:Z","depth":0,"parameterNumber":2,"parameterNumberName":"U-component_of_WINDS"},"data":[0,0,0,0,0,0,0,0,0,0,0,0,0,0,0,0,0,0,0,0,0,0,0,0,0,0,0,0,0,0,0,0,0,0,0,0,0,0,0,0,0,0,0,0,0,0,0,0,0,0,0,0,0,0,0,0,0,0,2.8527,2.8528,0,2.8592,2.8593,2.8593,2.8584,2.8582,2.8581,2.858,2.8645,2.8647,2.865,0,0,0,0,0,0,0,0,0,0,0,0,0,2.8396,2.8398,2.8527,2.8528,2.8529,2.8592,2.8593,2.8594,2.8584,2.8582,2.8581,2.858,2.8644,2.8647,2.865,0,0,0,0,0,0,0,0,0,0,0,0,0,2.8456,2.8399,2.8527,2.8531,2.8532,2.8592,2.8593,2.8594,2.8584,2.8582,2.8581,2.8579,2.8643,2.8647,2.8651,2.8709,0,0,2.8663,2.8665,0,0,0,0,0,0,0,0,2.8452,2.846,2.853,2.8531,2.8533,2.8578,2.857,2.8632,2.8584,2.8564,2.858,2.8578,2.8624,2.8629,2.8645,2.8712,2.8714,2.8663,2.8666,2.8668,2.8669,0,0,0,0,0,0,0,2.8448,2.8458,2.8553,2.8531,2.8533,2.8531,2.8537,2.8582,2.8602,2.8566,2.8565,2.8573,2.8624,2.8641,2.8646,2.8715,2.8663,2.8667,2.8669,2.8671,2.8837,2.8839,0,0,0,0,0,0,2.8443,2.8454,2.8551,2.8555,2.8488,2.8534,2.8542,2.8565,2.8602,2.8606,2.8575,2.8573,2.8635,2.8641,2.8648,2.8721,2.8668,2.8671,2.8674,2.8835,2.8838,2.884,0,0,0,0,0,0,2.844,2.8451,2.8548,2.8504,2.8517,2.8538,2.8564,2.8567,2.8584,2.8608,2.8612,2.8588,2.8634,2.8643,2.8695,2.8723,2.8673,2.8677,2.8833,2.8836,2.8839,2.8866,0,0,0,0,0,0,2.8436,2.845,2.8472,2.8505,2.8519,2.8593,2.8566,2.857,2.8591,2.8589,2.8622,2.8626,2.8633,2.8689,2.8699,2.8728,2.868,2.883,2.8834,2.8838,2.8863,2.887,2.8876,0,0,0,0,0,2.8432,2.8476,2.8473,2.8485,2.8547,2.8595,2.8603,2.8611,2.8594,2.8616,2.8633,2.8625,2.8719,2.8694,2.8705,2.8736,2.8829,2.8833,2.8838,2.886,2.8868,2.8875,0,0,0,0,0,0,2.8444,2.848,2.8478,2.8534,2.8562,2.8593,2.8621,2.8619,2.8651,2.8647,2.8656,2.8663,2.8717,2.8731,2.8704,2.8797,2.8771,2.8778,2.8785,2.8793,2.8799,2.8794,2.8684,0,0,0,0,0,2.8454,2.849,2.852,2.8567,2.8581,2.8599,2.862,2.8624,2.8653,2.8664,2.8684,2.8712,2.8748,2.8771,2.8805,2.8865,2.8873,2.8892,2.8899,2.8904,2.891,2.8946,2.8955,2.8854,2.8854,2.8854,0,0,2.8474,2.8498,2.852,2.857,2.8592,2.863,2.8609,2.8649,2.8677,2.867,2.8721,2.8737,2.8769,2.8826,2.8852,2.884,2.894,2.8909,2.8913,2.8916,2.8951,2.8961,2.8969,2.8857,2.8857,2.8856,0,0,2.853,2.8551,2.8594,2.8617,2.8651,2.8664,2.8674,2.8707,2.8718,2.877,2.8766,2.88,2.8861,2.8885,2.8905,2.8975,2.897,2.8986,2.9019,2.9054,2.9062,2.9069,2.9096,2.9105,2.8991,2.8992,2.8992,0,2.855,2.8607,2.8616,2.8658,2.8681,2.8679,2.8723,2.8745,2.8788,2.8804,2.8791,2.887,2.8891,2.8955,2.8973,2.8988,2.9002,2.8982,2.906,2.9067,2.9074,2.91,2.9109,2.8993,2.8993,2.8993,2.8993,0,2.8631,2.8671,2.8702,2.8746,2.8773,2.8815,2.8832,2.8858,2.8861,2.8875,2.893,2.8956,2.8997,2.9012,2.9014,2.9078,2.907,2.9058,2.9033,2.9085,2.911,2.9119,2.8996,2.8995,2.8995,2.8994,0,0,2.8694,2.8746,2.8757,2.8779,2.8818,2.8849,2.8893,2.8935,2.8958,2.8989,2.9027,2.9081,2.9072,2.9094,2.91,2.913,2.9187,2.9115,2.9116,2.9129,2.9261,2.927,2.9281,2.9184,2.9186,2.9187,2.9259,0,2.8755,2.8833,2.8845,2.8914,2.8953,2.8953,2.8991,2.902,2.9036,2.9071,2.9087,2.9127,2.911,2.9125,2.9155,2.9173,2.9214,2.9168,2.922,2.9222,2.9213,2.9294,2.9303,2.9369,2.9268,2.927,2.9271,0,2.8835,2.8871,2.8945,2.8982,2.8999,2.9033,2.9075,2.9108,2.9142,2.9151,2.9179,2.9181,2.9228,2.9202,2.9268,2.9237,2.9259,2.9272,2.9275,2.928,2.925,2.9302,2.939,2.9401,2.9286,2.9285,2.9284,0,2.8877,2.8943,2.8996,2.9014,2.9059,2.9084,2.9104,2.9136,2.9161,2.9197,2.9214,2.9255,2.9277,2.9308,2.9323,2.9302,2.9388,2.9362,2.9398,2.9398,2.9416,2.9415,2.951,2.9429,2.9429,2.9429,2.9429,0,2.8943,2.8989,2.9016,2.9049,2.9101,2.9115,2.9166,2.9184,2.9214,2.9251,2.9253,2.9288,2.9304,2.9342,2.9354,2.9408,2.9417,2.9427,2.9429,2.9427,2.9426,2.9442,2.9438,2.9431,2.9431,2.943,2.943,0,2.8997,2.9017,2.9076,2.9115,2.9126,2.9163,2.9196,2.9229,2.9245,2.9293,2.9305,2.933,2.9376,2.9393,2.9447,2.9455,2.9519,2.9517,2.9507,2.9508,2.9544,2.9541,2.9653,2.9669,2.9577,2.9578,2.9578,0,2.9039,2.9075,2.9118,2.9145,2.9166,2.9207,2.9234,2.925,2.9278,2.9321,2.9349,2.9395,2.9432,2.9504,2.9528,2.9571,2.9571,2.9607,2.9577,2.9575,2.9573,2.9571,2.9576,2.9612,2.9613,2.9614,2.9615,0,2.9112,2.9121,2.916,2.9204,2.9237,2.9271,2.9305,2.9326,2.9348,2.9379,2.9427,2.9456,2.9514,2.9559,2.9604,2.9624,2.9624,2.9625,2.9635,2.9634,2.9627,2.9633,2.9524,2.9622,2.9621,2.962,2.962,2.962,2.9162,2.9195,2.9232,2.9276,2.9304,2.9337,2.9371,2.9393,2.9433,2.9482,2.9489,2.954,2.9576,2.9636,2.9659,2.97,2.969,2.9705,2.9709,2.9713,2.9717,2.9621,2.9708,2.9708,2.9707,2.9707,2.9707,0,2.9236,2.9261,2.9302,2.9351,2.9387,2.9385,2.9423,2.9453,2.9499,2.9533,2.957,2.9626,2.9672,2.97,2.9746,2.9774,2.9775,2.9785,2.9784,2.9789,2.9722,2.9708,2.9784,2.9784,2.9784,2.9784,2.9784,2.9784,2.9279,2.9335,2.9349,2.9421,2.9445,2.9496,2.9519,2.955,2.9578,2.964,2.9679,2.9698,2.9731,2.978,2.9822,2.9829,2.9847,2.9858,2.9865,2.9801,2.9793,2.9786,2.9774,2.9861,2.9862,2.9929,2.993,2.993]},{"header":{"parameterUnit":"m.s-1","parameterCategory":1,"la1":30.2991,"la2":30.254,"lo1":-89.0895,"lo2":-89.0444,"dy":0.0017,"dx":0.0017,"nx":28,"ny":28,"refTime":"2023-11-20T03:00:00:Z","depth":0,"parameterNumber":3,"parameterNumberName":"V-component_of_WINDS"},"data":[0,0,0,0,0,0,0,0,0,0,0,0,0,0,0,0,0,0,0,0,0,0,0,0,0,0,0,0,0,0,0,0,0,0,0,0,0,0,0,0,0,0,0,0,0,0,0,0,0,0,0,0,0,0,0,0,0,0,-5.0976,-5.0978,0,-5.1096,-5.1097,-5.1099,-5.1109,-5.1108,-5.1107,-5.1105,-5.1223,-5.1227,-5.1231,0,0,0,0,0,0,0,0,0,0,0,0,0,-5.0755,-5.0759,-5.0976,-5.0978,-5.0979,-5.1096,-5.1097,-5.1099,-5.1109,-5.1108,-5.1106,-5.1105,-5.1221,-5.1226,-5.1232,0,0,0,0,0,0,0,0,0,0,0,0,0,-5.086,-5.076,-5.0976,-5.0999,-5.1002,-5.1096,-5.1098,-5.11,-5.111,-5.1108,-5.1106,-5.1104,-5.122,-5.1226,-5.1232,-5.131,0,0,-5.1252,-5.1255,0,0,0,0,0,0,0,0,-5.0854,-5.0868,-5.0994,-5.0997,-5.1001,-5.1086,-5.1062,-5.117,-5.111,-5.1069,-5.1105,-5.1103,-5.1178,-5.1188,-5.1215,-5.1316,-5.1321,-5.1253,-5.1257,-5.1259,-5.1261,0,0,0,0,0,0,0,-5.0847,-5.0863,-5.1023,-5.0996,-5.1,-5.1002,-5.1015,-5.1083,-5.1132,-5.1072,-5.1073,-5.1087,-5.118,-5.1208,-5.1217,-5.1322,-5.1252,-5.1258,-5.1262,-5.1265,-5.1497,-5.1499,0,0,0,0,0,0,-5.0836,-5.0857,-5.102,-5.1027,-5.0922,-5.1008,-5.1022,-5.106,-5.1132,-5.1141,-5.1089,-5.1087,-5.1198,-5.121,-5.1222,-5.132,-5.1259,-5.1265,-5.1269,-5.1495,-5.1497,-5.15,0,0,0,0,0,0,-5.0831,-5.085,-5.1015,-5.0943,-5.0964,-5.1014,-5.1057,-5.1064,-5.1092,-5.1145,-5.1153,-5.1109,-5.1197,-5.1212,-5.1289,-5.1324,-5.1268,-5.1274,-5.1492,-5.1496,-5.1499,-5.1515,0,0,0,0,0,0,-5.0824,-5.0848,-5.0879,-5.0943,-5.0967,-5.1081,-5.1059,-5.1068,-5.1104,-5.1103,-5.1166,-5.1174,-5.1197,-5.128,-5.1296,-5.1332,-5.1279,-5.1489,-5.1494,-5.1498,-5.1512,-5.1519,-5.1525,0,0,0,0,0,-5.0816,-5.0876,-5.088,-5.09,-5.1007,-5.1083,-5.1097,-5.1123,-5.1107,-5.1138,-5.1172,-5.1172,-5.1318,-5.1287,-5.1306,-5.1344,-5.1487,-5.1492,-5.1497,-5.1509,-5.1518,-5.1525,0,0,0,0,0,0,-5.0812,-5.0885,-5.089,-5.0973,-5.1022,-5.1085,-5.1124,-5.1131,-5.1184,-5.1181,-5.121,-5.1224,-5.1301,-5.133,-5.1295,-5.1425,-5.14,-5.1409,-5.1403,-5.1412,-5.1418,-5.141,-5.1284,0,0,0,0,0,-5.0821,-5.0878,-5.0939,-5.1006,-5.1031,-5.1074,-5.1108,-5.1125,-5.1176,-5.1196,-5.1236,-5.1284,-5.1342,-5.1378,-5.1433,-5.1517,-5.1531,-5.1552,-5.1559,-5.1564,-5.1571,-5.1621,-5.1631,-5.1517,-5.1517,-5.1517,0,0,-5.0839,-5.0887,-5.092,-5.1007,-5.1047,-5.1105,-5.1091,-5.1152,-5.1196,-5.1205,-5.1281,-5.1312,-5.1368,-5.145,-5.1487,-5.1476,-5.1607,-5.1571,-5.1574,-5.1579,-5.1627,-5.1638,-5.1647,-5.152,-5.152,-5.1519,0,0,-5.0903,-5.0944,-5.1007,-5.1048,-5.111,-5.1139,-5.1154,-5.1217,-5.1239,-5.1316,-5.1325,-5.1377,-5.1474,-5.1515,-5.1548,-5.1632,-5.1635,-5.1649,-5.1683,-5.1731,-5.174,-5.1748,-5.178,-5.1791,-5.1657,-5.1657,-5.1657,0,-5.0918,-5.1007,-5.1037,-5.11,-5.1139,-5.1152,-5.1216,-5.1254,-5.133,-5.1356,-5.1343,-5.1468,-5.1507,-5.16,-5.1621,-5.1646,-5.1665,-5.1642,-5.1737,-5.1745,-5.1753,-5.1784,-5.1796,-5.1658,-5.1658,-5.1658,-5.1658,0,-5.1024,-5.1086,-5.1128,-5.1205,-5.1248,-5.1311,-5.135,-5.139,-5.1404,-5.1434,-5.1514,-5.1562,-5.1628,-5.1651,-5.1663,-5.1747,-5.1739,-5.1731,-5.1707,-5.1765,-5.1795,-5.1806,-5.166,-5.166,-5.1659,-5.1659,0,0,-5.1085,-5.1181,-5.1196,-5.1233,-5.1304,-5.1353,-5.1417,-5.1485,-5.1519,-5.1572,-5.1627,-5.1711,-5.1706,-5.1744,-5.1761,-5.1803,-5.187,-5.1791,-5.1792,-5.1805,-5.1967,-5.1973,-5.1986,-5.1872,-5.1875,-5.1877,-5.1963,0,-5.1159,-5.1276,-5.1306,-5.1405,-5.1464,-5.148,-5.1536,-5.1586,-5.1616,-5.167,-5.1703,-5.1764,-5.1751,-5.1775,-5.1817,-5.1853,-5.1903,-5.1847,-5.1924,-5.1927,-5.1911,-5.2001,-5.2007,-5.2086,-5.1974,-5.1976,-5.1977,0,-5.1259,-5.1318,-5.1424,-5.1491,-5.1517,-5.1567,-5.1634,-5.1685,-5.1742,-5.1762,-5.1807,-5.1822,-5.1889,-5.1862,-5.1957,-5.1918,-5.1952,-5.1975,-5.1979,-5.1987,-5.1956,-5.2013,-5.2111,-5.2124,-5.1996,-5.1994,-5.1993,0,-5.1296,-5.1401,-5.1479,-5.151,-5.159,-5.1625,-5.166,-5.1716,-5.1756,-5.1813,-5.184,-5.1903,-5.1939,-5.1988,-5.2019,-5.1996,-5.2112,-5.2087,-5.2131,-5.213,-5.2154,-5.2152,-5.226,-5.2174,-5.2174,-5.2174,-5.2174,0,-5.1376,-5.144,-5.1498,-5.1546,-5.1619,-5.1654,-5.1725,-5.176,-5.181,-5.1865,-5.1882,-5.1933,-5.1972,-5.2028,-5.2053,-5.2129,-5.2144,-5.2162,-5.2168,-5.2161,-5.2159,-5.2184,-5.218,-5.2177,-5.2176,-5.2176,-5.2175,0,-5.1429,-5.147,-5.1557,-5.1627,-5.1646,-5.1697,-5.1757,-5.1804,-5.1837,-5.1907,-5.1925,-5.1975,-5.2043,-5.208,-5.2164,-5.2181,-5.2266,-5.2269,-5.2248,-5.2251,-5.2293,-5.2289,-5.2421,-5.2441,-5.2341,-5.2341,-5.2342,0,-5.1477,-5.1528,-5.1605,-5.1645,-5.1681,-5.1743,-5.1785,-5.1822,-5.1865,-5.1937,-5.1976,-5.2045,-5.2103,-5.221,-5.2254,-5.2319,-5.2324,-5.2366,-5.2333,-5.2326,-5.2326,-5.2324,-5.233,-5.2371,-5.2372,-5.2373,-5.2373,0,-5.1559,-5.1578,-5.1639,-5.1709,-5.1759,-5.1815,-5.187,-5.1901,-5.1947,-5.1994,-5.2066,-5.2111,-5.2199,-5.2268,-5.2337,-5.2372,-5.2381,-5.2384,-5.2398,-5.2391,-5.2378,-5.2388,-5.2265,-5.238,-5.2379,-5.2379,-5.2379,-5.2378,-5.1612,-5.166,-5.1723,-5.1791,-5.1837,-5.1889,-5.1939,-5.1979,-5.204,-5.2116,-5.2133,-5.2209,-5.2268,-5.2363,-5.24,-5.2459,-5.2451,-5.247,-5.2476,-5.248,-5.2483,-5.2368,-5.2472,-5.2471,-5.2471,-5.2471,-5.2471,0,-5.1697,-5.1739,-5.1802,-5.1881,-5.1935,-5.1941,-5.2003,-5.2048,-5.2115,-5.217,-5.2228,-5.2311,-5.238,-5.243,-5.25,-5.2538,-5.2544,-5.2555,-5.2553,-5.2561,-5.2485,-5.2467,-5.2549,-5.2549,-5.2549,-5.2549,-5.2549,-5.2549,-5.1747,-5.1829,-5.1856,-5.196,-5.2002,-5.2078,-5.2114,-5.2162,-5.2207,-5.23,-5.2358,-5.2391,-5.2445,-5.252,-5.2583,-5.2596,-5.2621,-5.2633,-5.2646,-5.2574,-5.2566,-5.2558,-5.2542,-5.2637,-5.2638,-5.2717,-5.2718,-5.2719]}]]